Hourly Data Report for September 19, 2017

All times are specified in Local Standard Time (LST). Add 1 hour to adjust for Daylight Saving Time where and when it is observed.

CLYDE RIVER A
NUNAVUT

70°29'09.000" N
68°31'01.000" W
26.50 m
2400804
71090
YCY

Download Data

Hourly Data (September 2017)
Hourly Data Report for September 19, 2017
Temp Definition
°C
Dew Point Temp Definition
°C
Rel Hum Definition
%
Wind Dir Definition
10's deg

Wind Spd Definition
km/h
Visibility Definition
km
Stn Press Definition
kPa
Hmdx Definition


Wind Chill Definition


Weather Definition


TIME
00:00 Legend Double Dagger 0.8 0.2 96 32 15 16.1 100.94     LegendNANA
01:00 Legend Double Dagger 0.6 0.0 96 32 13 11.3 100.99     Rain
02:00 Legend Double Dagger 0.6 0.0 96 30 9 16.1 101.07     Rain
03:00 Legend Double Dagger 0.6 -0.1 95 31 11 16.1 101.09     Snow
04:00 Legend Double Dagger 0.5 -0.1 96 29 11 16.1 101.13     Rain
05:00 Legend Double Dagger 0.6 -0.1 95 31 17 16.1 101.17     Snow
06:00 Legend Double Dagger 0.5 -0.1 96 31 15 16.1 101.22     LegendNANA
07:00 Legend Double Dagger 0.4 0.0 97 31 13 2.8 101.27     Snow
08:00 Legend Double Dagger 0.5 -0.1 96 31 15 8.1 101.33     Snow
09:00 Legend Double Dagger 0.7 0.1 96 31 21 11.3 101.36     Rain
10:00 Legend Double Dagger 1.0 0.1 94 34 18 16.1 101.40     Rain
11:00 Legend Double Dagger 1.3 0.1 91 34 24 16.1 101.44     Rain,Snow
12:00 Legend Double Dagger 0.9 -0.2 93 36 30 6.4 101.49     Rain,Fog
13:00 Legend Double Dagger 1.1 -0.8 87 34 22 16.1 101.56     Rain
14:00 Legend Double Dagger 0.9 -0.2 92 33 21 9.7 101.58     Snow
15:00 Legend Double Dagger 0.9 -0.9 88 34 24 16.1 101.63     Rain
16:00 Legend Double Dagger 0.5 -1.0 90 33 28 16.1 101.66     Rain
17:00 Legend Double Dagger 0.4 -0.9 91 33 24 16.1 101.70     Rain
18:00 Legend Double Dagger 0.1 -0.6 95 32 24 2.0 101.72     Snow
19:00 Legend Double Dagger 0.3 -0.3 96 32 21 3.6 101.76     Rain,Snow
20:00 Legend Double Dagger 0.4 0.0 97 34 22 2.8 101.78     Rain,Fog
21:00 Legend Double Dagger 0.6 0.1 96 34 17 6.4 101.82     Fog
22:00 Legend Double Dagger 0.6 -0.1 95 36 18 16.1 101.86     LegendNANA
23:00 Legend Double Dagger 0.4 -0.5 94 36 21 16.1 101.90     LegendNANA

Notes on Data Quality.

Legend

  • E = Estimated
  • M = Missing
  • NA = Not Available
  • ‡ = Partner data that is not subject to review by the National Climate Archives
Date modified: